Location: 476 Grange Obs.
(45.1421°N, 7.1417°E)
Time: 14:33:06
(UTC+01:00)

Envisat - Pass Details

Date: 28 October 2019
Orbit: 764 x 766 km, 98.1° (Epoch: 17 November)

Event Time Altitude Azimuth Distance (km) Brightness Sun altitude
Rises 18:31:49 0° 167° (SSE) 3,219 6.2 -12.2°
Reaches altitude 10° 18:34:07 10° 168° (SSE) 2,297 5.4 -12.6°
Maximum altitude 18:39:11 84° 257° (WSW) 776 3.1 -13.5°
Drops below altitude 10° 18:44:18 10° 345° (NNW) 2,313 5.6 -14.4°
Sets 18:46:37 0° 347° (NNW) 3,243 6.4 -14.8°
